Jackson, TN

11:47 AM CST on January 19, 2018 (GMT -0600)
McKellar-Sipes Regional

Weather History for KMKL - December, 2013

Change the Weather History Date:

Wednesday, December 4, 2013

  Actual Average Record
Temperature  
Mean Temperature 69 °F 43 °F  
Max Temperature 76 °F 54 °F 77 °F (1998)
Min Temperature 61 °F 33 °F 17 °F (2006)
Degree Days  
Heating Degree Days 0 22  
Month to date heating degree days 34 85  
Since 1 July heating degree days 824 752  
Cooling Degree Days 4 0  
Month to date cooling degree days 4 0  
Year to date cooling degree days 1596 1697  
Growing Degree Days 18 (Base 50)    
Moisture  
Dew Point 59 °F    
Average Humidity 74    
Maximum Humidity 93    
Minimum Humidity 54    
Precipitation  
Precipitation 0.00 in 0.18 in 1.30 in (2002)
Month to date precipitation 0.00 0.73  
Year to date precipitation 53.57 48.65  
Snow  
Snow 0.00 in - - ()
Month to date snowfall 0.0  
Snow Depth 0.00 in    
Sea Level Pressure  
Sea Level Pressure 29.75 in    
Wind  
Wind Speed 12 mph (South)    
Max Wind Speed 24 mph    
Max Gust Speed 33 mph    
Visibility 10 miles    
Events      
T = Trace of Precipitation, MM = Missing Value Source: NWS Daily Summary

Daily Weather History Graph

Daily Weather History Graph

Search for Another Location

Airport or City:

Trip Planner

Search our weather history database for the weather conditions in past years. The results will help you decide how hot, cold, wet, or windy it might be!

Date:

Astronomy

Dec. 04, 2013 Rise Set
Actual Time 6:49 AM CST 4:42 PM CST
Civil Twilight 6:21 AM CST 5:10 PM CST
Nautical Twilight 5:49 AM CST 5:42 PM CST
Astronomical Twilight 5:19 AM CST 6:12 PM CST
Moon 8:18 AM CST (12/4) 6:50 PM CST (12/4)
Length of Visible Light 10h 48m
Length of Day
9h 52m
Waxing Crescent, 4% of the Moon is Illuminated
Dec 4
Waxing Crescent
Dec 9
First Quarter
Dec 17
Full
Dec 25
Last Quarter
Jan 1
New

Hourly Weather History & Observations

Time (CST) Temp. Dew Point Humidity Pressure Visibility Wind Dir Wind Speed Gust Speed Precip Events Conditions
12:53 AM 61.0 °F 57.9 °F 90% 29.71 in 10.0 mi SSE 8.1 mph - N/A   Overcast
1:23 AM 62.6 °F 57.2 °F 82% 29.73 in 10.0 mi South 8.1 mph - N/A   Overcast
1:43 AM 62.6 °F 59.0 °F 88% 29.73 in 10.0 mi South 8.1 mph - N/A   Mostly Cloudy
1:53 AM 62.1 °F 59.0 °F 90% 29.71 in 10.0 mi South 6.9 mph - N/A   Mostly Cloudy
2:30 AM 62.6 °F 59.0 °F 88% 29.72 in 10.0 mi South 9.2 mph - N/A   Mostly Cloudy
2:45 AM 62.6 °F 59.0 °F 88% 29.72 in 10.0 mi South 8.1 mph - N/A   Scattered Clouds
2:53 AM 62.1 °F 59.0 °F 90% 29.72 in 10.0 mi South 8.1 mph - N/A   Mostly Cloudy
3:53 AM 63.0 °F 60.1 °F 90% 29.71 in 10.0 mi South 11.5 mph - N/A   Overcast
4:39 AM 62.6 °F 60.8 °F 94% 29.72 in 10.0 mi SSW 8.1 mph - N/A   Overcast
4:53 AM 63.0 °F 60.1 °F 90% 29.72 in 10.0 mi South 9.2 mph - N/A   Overcast
5:22 AM 64.4 °F 60.8 °F 88% 29.73 in 10.0 mi South 8.1 mph - N/A   Overcast
5:53 AM 64.0 °F 60.1 °F 87% 29.74 in 10.0 mi SSW 12.7 mph 20.7 mph N/A   Overcast
6:04 AM 64.4 °F 60.8 °F 88% 29.76 in 10.0 mi SSW 12.7 mph - N/A   Overcast
6:53 AM 64.0 °F 60.1 °F 87% 29.76 in 10.0 mi SSW 9.2 mph - N/A   Overcast
7:53 AM 64.9 °F 60.1 °F 84% 29.77 in 10.0 mi South 9.2 mph - N/A   Overcast
8:53 AM 66.9 °F 60.1 °F 79% 29.77 in 10.0 mi South 13.8 mph 19.6 mph N/A   Overcast
9:53 AM 69.1 °F 60.1 °F 73% 29.79 in 10.0 mi SSW 16.1 mph 23.0 mph N/A   Overcast
10:53 AM 70.0 °F 59.0 °F 68% 29.76 in 10.0 mi SSW 20.7 mph 31.1 mph N/A   Overcast
11:35 AM 71.6 °F 59.0 °F 64% 29.76 in 10.0 mi SSW 18.4 mph 25.3 mph N/A   Overcast
11:53 AM 72.0 °F 59.0 °F 64% 29.74 in 10.0 mi South 13.8 mph 23.0 mph N/A   Overcast
12:53 PM 73.9 °F 57.9 °F 57% 29.72 in 10.0 mi SSW 19.6 mph 29.9 mph N/A   Mostly Cloudy
1:53 PM 75.9 °F 57.9 °F 54% 29.70 in 10.0 mi SSW 18.4 mph 33.4 mph N/A   Clear
2:53 PM 75.9 °F 57.9 °F 54% 29.71 in 10.0 mi SSW 19.6 mph 27.6 mph N/A   Clear
3:53 PM 73.9 °F 57.9 °F 57% 29.72 in 10.0 mi SSW 15.0 mph 24.2 mph N/A   Clear
4:53 PM 72.0 °F 59.0 °F 64% 29.75 in 10.0 mi South 12.7 mph - N/A   Clear
5:53 PM 71.1 °F 59.0 °F 66% 29.74 in 10.0 mi South 11.5 mph 16.1 mph N/A   Clear
6:53 PM 70.0 °F 60.1 °F 71% 29.77 in 10.0 mi SSW 13.8 mph 23.0 mph N/A   Clear
7:53 PM 69.1 °F 60.1 °F 73% 29.79 in 10.0 mi South 12.7 mph - N/A   Clear
8:53 PM 68.0 °F 60.1 °F 76% 29.81 in 10.0 mi SSW 9.2 mph - N/A   Clear
9:53 PM 68.0 °F 60.1 °F 76% 29.82 in 10.0 mi South 8.1 mph - N/A   Scattered Clouds
10:53 PM 68.0 °F 61.0 °F 78% 29.82 in 10.0 mi South 10.4 mph - N/A   Mostly Cloudy
11:53 PM 68.0 °F 61.0 °F 78% 29.83 in 10.0 mi SSW 8.1 mph - N/A   Partly Cloudy